Location: Casteau
(50.5142°N, 4.0161°E)
Time: 02:49:36
(UTC+00:00)

Transit 2A - Pass Details

Date: 02 August 2021
Orbit: 594 x 964 km, 66.7° (Epoch: 27 September)

Event Time Altitude Azimuth Distance (km) Brightness Sun altitude
Rises 13:19:12 0° 323° (NW) 3,173 9.1 52.6°
Reaches altitude 10° 13:21:31 10° 328° (NNW) 2,304 8.5 52.4°
Maximum altitude 13:26:45 56° 47° (NE) 972 6.9 51.9°
Drops below altitude 10° 13:32:31 10° 126° (SE) 2,536 8.8 51.3°
Sets 13:35:10 0° 130° (SE) 3,521 9.4 51.0°
